User: anonymous   Login
Location: Unspecified
(0.0000°N, 0.0000°E)
Time: 09:03:54
(UTC+01:00)
Language:

GP-B - Orbit

View from above orbital plane
View from above orbital plane
View from above satellite
View from above satellite

Ground track
Ground track

The orbit data is extracted from the following two-line orbital elements,

1 28230U 04014A   15063.14852103  .00000970  00000-0  13231-3 0  9992
2 28230 089.8811 136.3063 0001854 090.7895 269.3540 14.78006638585583
Epoch (UTC): 04 March 2015 03:33:52
Eccentricity: 0.0001854
inclination: 89.8811°
perigee height: 634 km
apogee height: 637 km
right ascension of ascending node: 136.3063°
argument of perigee: 90.7895°
revolutions per day: 14.78006638
mean anomaly at epoch: 269.3540°
orbit number at epoch: 58558

The dashed part of the orbit path shows where the satellite is in the earth's shadow,  

DLR